GW6826 Weather Reports


time (UTC)temp
F
wind
direction
speed
knots
gust
knots
rain 1hr
in
rain 24hr
in
rain mn
in
humidity
%
barometer
mb
20260508180018 66 288 2.6 5.2 0.00 0.00 0.00 50 1017.6
20260508174520 68 311 1.7 3.5 0.00 0.00 0.00 47 1017.3
20260508173020 68 327 2.6 4.3 0.00 0.00 0.00 47 1017.0
20260508171517 69 323 1.7 4.3 0.00 0.00 0.00 46 1016.8
20260508170030 69 321 1.7 4.3 0.00 0.00 0.00 46 1016.6
20260508164524 69 342 1.7 4.3 0.00 0.00 0.00 45 1016.4
20260508163025 70 329 2.6 4.3 0.00 0.00 0.00 43 1016.4
20260508161501 70 286 2.6 6.1 0.00 0.00 0.00 42 1016.2
20260508160003 71 319 3.5 7.0 0.00 0.00 0.00 40 1016.1
20260508154502 71 317 2.6 7.8 0.00 0.00 0.00 38 1015.9
20260508153009 72 291 4.3 8.7 0.00 0.00 0.00 36 1016.0
20260508151508 73 311 4.3 9.6 0.00 0.00 0.00 34 1015.9
20260508150003 74 301 4.3 10.4 0.00 0.00 0.00 33 1015.9
20260508144507 75 333 4.3 8.7 0.00 0.00 0.00 33 1015.9
20260508143006 76 246 2.6 7.0 0.00 0.00 0.00 32 1015.9
20260508141510 76 280 3.5 6.1 0.00 0.00 0.00 33 1015.9
20260508140018 76 265 2.6 7.0 0.00 0.00 0.00 33 1016.0
20260508134506 76 297 1.7 7.0 0.00 0.00 0.00 31 1015.9
20260508133021 76 0.0 0.0 0.00 0.00 0.00 32 1015.9
20260508131522 77 150 2.6 7.0 0.00 0.00 0.00 32 1015.9
20260508130017 77 153 3.5 7.0 0.00 0.00 0.00 31 1015.9
20260508124524 78 238 0.0 7.8 0.00 0.00 0.00 32 1016.0
20260508123007 76 180 0.9 7.8 0.00 0.00 0.00 33 1016.1
20260508121504 77 128 4.3 8.7 0.00 0.00 0.00 30 1016.2
20260508120005 76 192 1.7 6.1 0.00 0.00 0.00 30 1016.2
20260508114510 75 101 4.3 8.7 0.00 0.00 0.00 29 1016.3
20260508111501 75 5 1.7 7.8 0.00 0.00 0.00 31 1016.7
20260508103016 73 133 6.1 10.4 0.00 0.00 0.00 33 1017.2
20260508100004 76 128 2.6 10.4 0.00 0.00 0.00 32 1017.2
20260508094505 74 248 1.7 6.1 0.00 0.00 0.00 33 1017.2
20260508093009 72 96 3.5 11.3 0.00 0.00 0.00 36 1017.4
20260508091525 73 298 2.6 9.6 0.00 0.00 0.00 36 1017.5
20260508090020 71 115 3.5 8.7 0.00 0.00 0.00 36 1017.8
20260508081516 71 186 4.3 8.7 0.00 0.00 0.00 34 1018.1
20260508080020 70 185 5.2 7.8 0.00 0.00 0.00 36 1018.0
20260508073005 69 180 2.6 7.8 0.00 0.00 0.00 35 1018.1
20260508071515 69 95 1.7 7.0 0.00 0.00 0.00 34 1018.1
20260508070020 69 28 2.6 7.0 0.00 0.00 0.00 33 1018.3
20260508064527 68 24 0.9 4.3 0.00 0.00 0.00 33 1018.1
20260508061510 68 107 0.9 2.6 0.00 0.00 0.00 36 1018.4
20260508051504 65 169 0.9 4.3 0.00 0.00 0.00 49 1018.5
20260508050012 63 225 0.9 3.5 0.00 0.00 0.00 51 1018.6
20260508044518 62 205 0.9 4.3 0.00 0.00 0.00 54 1018.7
20260508043023 61 219 0.9 3.5 0.00 0.00 0.00 56 1018.7
20260508041523 60 201 3.5 6.1 0.00 0.00 0.00 55 1018.5
20260508040008 60 200 3.5 5.2 0.00 0.00 0.00 54 1018.4
20260508034515 61 204 0.9 4.3 0.00 0.00 0.00 50 1018.1
20260508033019 59 234 1.7 6.1 0.00 0.00 0.00 54 1018.2
20260508030028 56 245 2.6 4.3 0.00 0.00 0.00 59 1017.8
20260508023017 57 207 2.6 7.0 0.00 0.00 0.00 57 1017.6
20260508014526 55 265 0.9 4.3 0.00 0.00 0.00 60 1017.3
20260508013014 56 245 2.6 6.1 0.00 0.00 0.00 60 1017.1
20260508011502 55 346 0.9 3.5 0.00 0.00 0.00 62 1017.1
20260508010006 55 228 1.7 4.3 0.00 0.00 0.00 63 1017.2
20260508004513 56 213 0.9 3.5 0.00 0.00 0.00 62 1017.2
20260508000006 55 259 2.6 6.1 0.00 0.00 0.00 63 1017.4
20260507233015 56 196 2.6 5.2 0.00 0.00 0.00 63 1017.4
20260507231519 56 225 1.7 3.5 0.00 0.00 0.00 63 1017.4
20260507230025 57 212 0.9 2.6 0.00 0.00 0.00 62 1017.5
20260507223011 58 223 0.0 2.6 0.00 0.00 0.00 59 1017.5
20260507214530 59 222 0.9 3.5 0.00 0.00 0.00 59 1017.7
20260507211513 59 239 1.7 3.5 0.00 0.00 0.00 59 1017.9
20260507210017 60 186 0.9 1.7 0.00 0.00 0.00 56 1018.0
20260507203032 60 208 0.0 2.6 0.00 0.00 0.00 55 1017.9
20260507201509 61 253 0.9 2.6 0.00 0.00 0.00 53 1017.8
20260507200018 61 242 0.9 3.5 0.00 0.00 0.00 52 1017.6
20260507194519 61 202 1.7 4.3 0.00 0.00 0.00 52 1017.6
20260507191526 62 200 2.6 7.0 0.00 0.00 0.00 50 1017.8
20260507190013 63 166 2.6 6.1 0.00 0.00 0.00 49 1017.6
20260507184516 63 213 0.9 6.1 0.00 0.00 0.00 50 1017.6
20260507181526 64 194 1.7 7.0 0.00 0.00 0.00 48 1017.5